Location: Bishopstone
(51.3708°N, 1.1917°E)
Time: 12:53:53
(UTC+00:00)

Daily predictions for brighter satellites

Satellite Brightness Start Highest point End
(mag) Time Altitude Azimuth Time Altitude Azimuth Time Altitude Azimuth
NOSS 3-1 (C) 4.1 17:02:44 10° NW 17:09:59 85° NE 17:18:34 10° SE
NOAA 11 4.2 17:05:42 10° SSE 17:11:11 72° ENE 17:16:40 10° NNW
AQUARIUS 4.1 17:07:27 10° SSE 17:11:56 79° ENE 17:16:29 10° NNW
COSMO-SKYMED 1 3.8 17:09:20 10° NE 17:12:44 22° E 17:16:06 10° SE
BREEZE-M DEB (TANK) 2.1 17:11:47 10° W 17:14:19 59° S 17:16:33 10° E
Aureole 3 2.7 17:12:55 10° N 17:16:01 52° ENE 17:18:55 10° SSE
Okean 1-7 Rocket 3.7 17:14:16 10° S 17:18:48 69° E 17:23:22 10° NNE
USA 290 3.3 17:17:10 10° N 17:19:54 25° NE 17:22:37 10° ESE
Cosmos 1833 Rocket 2.9 17:18:10 10° NNW 17:23:38 48° NE 17:29:03 10° SE
NOSS 2-1 (C) 3.7 17:20:59 10° SSW 17:24:03 35° SE 17:27:16 10° ENE
Cosmos 2344 4.3 17:20:52 10° NW 17:29:40 74° NE 17:41:53 10° SE
H-2A R/B 2.8 17:25:19 10° ESE 17:29:42 30° ENE 17:34:13 10° N
NOSS 2-1 (D) 3.5 17:26:50 10° SSW 17:29:57 40° SE 17:33:06 11° ENE
H-2A R/B 2.1 17:25:50 10° NNE 17:30:15 67° ESE 17:34:31 10° S
Meteor 1-21 Rocket 4.3 17:25:02 10° S 17:30:27 58° E 17:35:58 10° NNE
USA 229 DEB 3.9 17:24:16 10° NW 17:31:31 85° NE 17:39:12 10° SE
USA 229 3.9 17:24:22 10° NW 17:31:38 85° NE 17:39:19 10° SE
Cosmos 1939 Rocket 2.9 17:27:41 10° SSE 17:31:43 62° ENE 17:35:41 10° N
Cosmos 389 Rocket 4.5 17:30:59 10° NE 17:32:01 11° ENE 17:32:01 11° ENE
Helios 1A Rocket 4.2 17:29:06 10° ESE 17:32:14 21° ENE 17:35:22 10° NNE
CZ-3B R/B 1.6 17:31:06 10° WNW 17:33:22 82° SSW 17:39:00 10° ESE
Cosmos 44 3.4 17:29:13 10° SSW 17:34:02 68° SE 17:39:12 10° NE
SeaSat 1 3.1 17:29:27 10° NNE 17:34:18 57° NW 17:39:08 10° SW
Cosmos 1602 Rocket 4.0 17:30:32 10° SSE 17:34:38 41° E 17:38:47 10° NNE
Cosmos 2026 Rocket 4.4 17:30:24 10° SSE 17:36:03 39° E 17:41:48 10° NNE
Cosmos 2112 Rocket 4.1 17:31:11 10° NNW 17:36:27 83° WSW 17:41:39 10° SSE
Feng Yun 1-1 Rocket 4.3 17:31:43 10° SSE 17:37:09 64° ENE 17:42:46 10° NNW
SJ 16-02 1.6 17:33:03 10° SSW 17:37:26 72° WNW 17:41:51 10° NNE
Cosmos 1689 Rocket 4.3 17:41:34 10° ESE 17:41:34 10° ESE 17:41:43 10° ESE
Cosmos 990 Rocket 4.0 17:35:50 10° S 17:40:57 62° ESE 17:46:05 10° NNE
YAOGAN 1 3.3 17:37:19 10° SE 17:41:08 31° ENE 17:44:59 10° N
Aureole 3 Rocket 2.9 17:38:42 10° N 17:41:43 38° ENE 17:45:18 10° SSE
Cosmos 1844 Rocket 3.0 17:36:55 10° SW 17:42:35 71° WNW 17:48:14 10° NNE
COSMOS 2406 3.2 17:37:16 10° NNW 17:43:05 71° ENE 17:48:50 10° SE
H-2A R/B 3.9 17:39:09 10° S 17:43:10 44° W 17:47:21 10° NNW
Cosmos 2082 Rocket 2.6 17:37:57 10° NNW 17:43:23 41° NE 17:48:45 10° ESE
Cosmos 1818 4.0 17:38:43 10° SW 17:44:07 63° NW 17:49:35 10° NE
Cosmos 1844 3.9 17:40:54 10° SSW 17:46:36 80° WNW 17:52:25 10° NNE
NOSS 3-1 (A) 4.1 17:39:50 10° NW 17:47:09 89° NE 17:55:44 10° SE
X-37B 2.6 17:45:46 10° WSW 17:48:24 23° S 17:51:01 10° SE
Cosmos 1703 3.2 17:44:45 10° S 17:48:35 63° E 17:52:26 10° NNE
IRS-1C Rocket 4.1 17:45:29 10° SSE 17:50:39 61° ENE 17:55:51 10° N
Cosmos 1812 Rocket 3.4 17:46:31 10° N 17:50:55 75° ENE 17:55:15 10° SSE
ISS -3.8 17:48:09 10° W 17:51:33 85° NNW 17:53:50 19° E
ATLAS 2AS CENTAUR R/B 4.0 17:47:43 10° WNW 17:54:46 34° N 18:00:54 12° NE
Okean O Rocket 2.8 17:52:15 10° S 17:56:32 48° W 18:00:50 10° NNW
Cosmos 2227 Rocket 4.5 17:55:00 10° NNW 17:56:35 11° NNW 17:58:10 10° N
ATLAS 5 CENTAUR R/B 3.4 17:53:26 10° WNW 17:57:04 23° NNW 18:00:57 11° NE
Iridium 4 Rocket 3.5 17:53:50 10° N 17:59:14 58° E 18:04:08 10° SSE
CZ-4 R/B 1.5 17:56:49 10° SE 18:00:42 50° ENE 18:04:33 10° N
ERS-2 2.9 17:58:38 15° NE 18:01:04 30° E 18:04:19 10° SSE
SKYMED 2 3.6 17:56:48 10° NNE 18:01:07 59° ESE 18:05:24 10° S
Cosmos 2195 Rocket 4.5 17:57:17 10° S 18:03:35 70° E 18:09:53 10° NNE
CSL-04 Rocket 4.1 18:00:13 10° SE 18:05:16 40° ENE 18:10:25 10° N
S3M 4.3 18:01:26 10° N 18:07:08 39° ENE 18:12:51 10° SE
CZ-4C R/B 3.8 18:01:59 10° WNW 18:07:09 29° N 18:11:46 15° NE
Okean-O 2.7 18:03:53 10° SSE 18:08:13 57° ENE 18:12:35 10° N
USA 234 3.6 18:05:52 18° ENE 18:10:48 55° N 18:17:09 10° WNW
Ariane Rocket 4.4 18:11:25 19° NE 18:11:25 19° NE 18:14:54 10° N
Cosmos 1428 Rocket 4.5 18:05:20 10° S 18:11:34 67° E 18:17:51 10° NNE
Cosmos 1340 2.6 18:08:20 10° S 18:12:05 90° E 18:15:52 10° NNE
Cosmos 1346 Rocket 3.2 18:08:59 10° SSE 18:12:39 38° E 18:15:11 18° NE
Cosmos 2278 Rocket 2.5 18:07:28 10° S 18:12:51 47° ESE 18:17:11 16° NE
Cosmos 858 Rocket 4.5 18:09:37 10° SSW 18:14:52 72° ESE 18:20:09 10° NNE
Cosmos 1953 Rocket 4.2 18:12:23 10° SSE 18:16:13 31° E 18:17:58 23° NE
CZ-2C R/B 3.4 18:11:17 10° SSE 18:16:50 81° WSW 18:22:38 10° NNW
SAR-Lupe-4 4.0 18:17:50 29° NE 18:19:03 39° E 18:22:25 10° S
Cosmos 2292 Rocket 4.3 18:16:58 10° SSE 18:20:41 28° E 18:20:41 28° E
Cosmos 405 3.4 18:17:40 10° NNW 18:21:10 64° W 18:24:39 10° S
COSMOS 2455 4.1 18:16:31 10° W 18:22:00 35° NW 18:27:31 10° NNE
Cosmos 44 Rocket 4.4 18:19:01 10° SSE 18:22:59 24° ESE 18:23:19 24° ESE
NOSS 2-1 (E) 3.1 18:21:47 10° SW 18:25:05 71° NW 18:26:46 29° NE
Cosmos 1627 Rocket 4.5 18:21:58 10° S 18:28:13 90° NW 18:34:36 10° N
TELKOM 3 4.0 18:26:36 10° W 18:28:34 36° SSW 18:28:34 36° SSW
Cosmos 1869 3.6 18:25:40 10° N 18:29:23 41° ENE 18:30:11 37° ESE
NOSS 2-2 (D) 4.4 18:25:19 10° NW 18:30:08 52° NE 18:33:29 26° ESE
ARGOS 3.1 18:25:04 10° SSE 18:30:21 63° ENE 18:35:42 10° N
Meteor 2-19 Rocket 4.4 18:26:16 10° S 18:32:25 74° E 18:38:35 10° NNE
PSLV R/B 3.9 18:28:24 11° NNE 18:32:26 63° ESE 18:36:36 10° S
SAR-Lupe-1 4.0 18:34:04 39° NE 18:35:09 59° ESE 18:38:42 10° S
Cosmos 1898 Rocket 4.0 18:30:41 10° SW 18:35:53 61° WNW 18:41:05 10° NNE
CZ-4B R/B 2.3 18:32:51 10° N 18:36:06 46° WNW 18:39:11 10° SW
Cosmos 468 4.4 18:31:16 10° NNW 18:36:31 66° ENE 18:41:13 13° SE
Cosmos 372 Rocket 4.0 18:31:24 10° S 18:36:31 61° ESE 18:39:58 21° NE
Cosmos 1092 Rocket 4.3 18:31:02 10° SSW 18:37:10 67° WNW 18:43:18 10° N
CZ-2C R/B 3.2 18:33:46 18° NE 18:37:19 36° E 18:42:28 10° SSE
Cosmos 2263 Rocket 4.5 18:34:11 10° WNW 18:37:31 16° NNW 18:40:50 10° N
Cosmos 494 Rocket 4.1 18:35:24 10° NNW 18:40:27 51° ENE 18:42:29 33° ESE
MOS 1 Rocket 3.4 18:39:40 10° N 18:43:56 65° WNW 18:48:13 10° SSW
Cosmos 1048 Rocket 3.8 18:40:22 10° NNW 18:45:31 75° ENE 18:49:36 16° SSE
Cosmos-2242 3.6 18:41:33 10° NNW 18:45:47 59° W 18:50:01 10° S
Cosmos 2150 Rocket 4.4 18:41:04 10° S 18:45:50 39° ESE 18:45:58 39° E
COSMO-SKYMED 1 3.5 18:44:57 10° N 18:49:09 49° WNW 18:53:21 10° SW
Meteor 1-11 4.3 18:46:52 10° SSW 18:52:32 78° WNW 18:58:11 10° N
Cosmos 1758 Rocket 4.2 18:51:06 10° SSW 18:55:31 59° WNW 19:00:00 10° N
Cosmos 909 Rocket 4.5 18:52:13 10° NW 18:58:22 47° NE 19:00:09 39° ENE
Cosmos 1937 Rocket 4.2 18:53:14 10° SW 18:58:29 55° WNW 19:03:19 12° NNE
SL-08 RB Rocket 3.5 18:59:18 24° SSE 19:02:00 82° ENE 19:06:31 10° NNW
CSL-04 Debris 4.3 18:58:51 10° S 19:04:14 75° WSW 19:09:40 10° NNW
Cosmos 2221 3.5 19:01:05 10° N 19:03:42 33° NNE 19:03:42 33° NNE
Helios 1A Rocket 3.7 19:03:02 10° S 19:07:05 52° W 19:11:09 10° NNW
Cosmos 389 Rocket 3.6 19:03:42 10° NNW 19:05:55 36° NNW 19:05:55 36° NNW
Cosmos 1833 Rocket 4.2 19:02:21 10° NW 19:07:26 36° WSW 19:12:31 10° S
H-2A R/B 2.9 19:03:59 10° S 19:08:54 50° W 19:14:01 10° NNW
Cosmos 1125 Rocket 4.4 19:05:29 10° S 19:08:41 34° SSE 19:08:41 34° SSE
Cosmos 1809 Rocket 4.3 19:05:01 10° S 19:11:06 69° E 19:17:14 10° NNE
Cosmos 1689 Rocket 4.4 19:13:25 20° SW 19:13:25 20° SW 19:14:32 10° SW
Cosmos 2298 Rocket 3.9 19:07:47 10° SSW 19:13:04 69° ESE 19:13:35 64° ENE
Cosmos 2266 Rocket 3.8 19:09:07 10° S 19:15:16 67° E 19:21:21 10° NNE
SJ 16-02 4.1 19:14:38 10° WNW 19:16:52 14° NW 19:19:05 10° NNW
YAOGAN 1 4.2 19:13:15 10° SSW 19:17:12 34° W 19:21:11 10° NNW
NOSS 2-2 (C) 4.2 19:13:08 10° NW 19:18:18 87° NE 19:20:07 50° SE
X-37B 3.7 19:23:18 10° SW 19:23:54 11° SW 19:23:54 11° SW
In-Cosmos 22 Rocket 4.1 19:19:10 10° S 19:24:57 87° E 19:29:35 16° NNE
Cosmos 2082 Rocket 3.2 19:22:07 10° NW 19:27:34 45° WSW 19:32:56 10° S
ISS -1.7 19:25:01 10° W 19:26:49 29° W 19:26:49 29° W
NOSS 3-4 (A) 4.4 19:24:02 10° NW 19:30:03 36° NNE 19:30:38 36° NNE
NOSS 3-4 (C) 4.4 19:24:08 10° NW 19:30:09 36° NNE 19:30:44 36° NNE
Cosmos 1269 Rocket 4.4 19:24:56 10° NNW 19:29:03 49° N 19:29:03 49° N
Cosmos 1241 Rocket 4.4 19:26:18 10° SSW 19:32:45 72° SE 19:33:16 68° E
ERS-2 4.2 19:33:12 21° NNW 19:34:31 26° WNW 19:37:34 10° WSW
CZ-4 R/B 4.1 19:33:11 10° SW 19:36:01 18° W 19:38:49 10° NW
MetOp-A 4.1 19:37:46 80° SSW 19:38:03 84° WSW 19:43:27 10° NNW
Meteor 2-21 4.3 19:34:46 10° S 19:40:53 87° W 19:47:05 10° N
ATLAS 5 CENTAUR R/B 3.7 19:39:22 10° NW 19:42:29 22° N 19:42:29 22° N
Cosmos 2227 Rocket 4.5 19:41:20 10° N 19:42:53 12° N 19:42:53 12° N
Cosmos 2315 Rocket 3.9 19:38:45 10° N 19:45:01 84° W 19:46:33 54° S
ATLAS 2AS CENTAUR R/B 3.6 19:40:41 10° NW 19:47:47 37° NNE 19:48:21 37° NNE
Meteor 2-14 Rocket 4.4 19:42:49 10° SSW 19:48:54 81° WNW 19:55:03 10° N
Ariane Rocket 3.9 19:51:36 41° NNW 19:51:36 41° NNW 19:54:54 10° NNW
IRS-1A Rocket 4.3 19:51:16 83° W 19:51:16 83° W 19:57:03 10° NNW
USA 234 3.2 19:53:13 66° NNE 19:53:26 66° NNE 19:59:55 10° WNW
Cosmos 2278 Rocket 3.3 19:51:45 10° WSW 19:57:04 40° NW 19:59:05 30° N
CZ-4C R/B 3.5 19:51:16 10° NW 19:56:57 39° NNE 19:56:57 39° NNE
USA 281 3.9 20:04:50 42° N 20:04:50 42° N 20:09:26 10° NNW
Cosmos 2297 Rocket 4.5 20:03:50 10° N 20:05:07 13° N 20:05:07 13° N
CZ-2C R/B 3.7 20:15:10 27° NNW 20:17:42 44° WNW 20:22:59 10° SW
ATLAS 2AS CENTAUR R/B 4.4 21:32:16 10° NW 21:35:47 30° NW 21:35:47 30° NW
